Cosco Tengfei — HPMO — position and weather

sailwx.info

Track history (hours):
 
Tides and Currents Weather Stations Pressure Air Temp Water Temp Dewpoint Dewpoint Depression Visibility Wind Speed Wind Dir Waves Ship Positions

Cosco Tengfei

Last reported at 2014-Oct-31 02:33 UTC. Time now 2014-Oct-31 10:49 UTC.
Position N 37°56' E 123°10'.

Length 183 m; draft 8.3 m.

Type: Cargo ship. MMSI: 355518000.

Date/timePositionNaut miles runAvg speedWind from/ knotsBaromVisibWave heightAir tempDewpointWater temp
2014-Oct-31 02:33N 37°56' E 123°10'3015.0
2014-Oct-31 00:33N 38°06' E 122°34'22515.0
2014-Oct-30 09:32N 38°57' E 117°54'7 7.4
2014-Oct-30 08:33N 39°01' E 117°47'0 0.4
2014-Oct-30 07:25N 39°01' E 117°46'0 0.0
2014-Oct-30 06:25N 39°01' E 117°46'0 0.0
2014-Oct-30 05:31N 39°01' E 117°46'0 0.0
2014-Oct-30 04:31N 39°01' E 117°46'0 0.0
2014-Oct-30 03:31N 39°01' E 117°46'0 0.0
2014-Oct-30 02:31N 39°01' E 117°46'0 0.0
2014-Oct-30 01:31N 39°01' E 117°46'0 0.0
2014-Oct-30 00:31N 39°01' E 117°46'0 0.3
2014-Oct-29 23:33N 39°01' E 117°46'9 9.1
2014-Oct-29 22:33N 38°57' E 117°57'9 1.1
2014-Oct-29 14:19N 38°56' E 118°08'0 0.1
2014-Oct-29 13:17N 38°56' E 118°08'5 6.8
2014-Oct-29 12:33N 38°53' E 118°13'15416.2
2014-Oct-29 03:04N 38°23' E 121°26'2815.5
2014-Oct-29 01:13N 38°08' E 121°57'1115.9
2014-Oct-29 00:33N 38°03' E 122°09'1616.2
2014-Oct-28 23:33N 37°53' E 122°25'1616.4
2014-Oct-28 22:33N 37°42' E 122°40'2016.0
2014-Oct-28 21:18N 37°25' E 122°53'1415.6
2014-Oct-28 20:25N 37°11' E 122°53'1414.9
2014-Oct-28 19:31N 36°57' E 122°53'1414.6
2014-Oct-28 18:33N 36°43' E 122°53'1615.0
2014-Oct-28 17:29N 36°27' E 122°51'1715.5
2014-Oct-28 16:24N 36°10' E 122°52'1416.1
2014-Oct-28 15:30N 35°56' E 122°53'1716.0
2014-Oct-28 14:25N 35°39' E 122°53'26812.7
2014-Oct-27 17:26N 31°16' E 121°51'9 8.8
2014-Oct-27 16:23N 31°19' E 121°41'0 0.1
2014-Oct-27 15:25N 31°19' E 121°41'0 0.0
2014-Oct-27 13:19N 31°19' E 121°41'0 0.0
2014-Oct-27 10:32N 31°19' E 121°41'0 0.0
2014-Oct-27 09:26N 31°19' E 121°41'0 0.1
2014-Oct-27 08:25N 31°19' E 121°41'1 0.3
2014-Oct-27 06:18N 31°20' E 121°40'3 4.2
2014-Oct-27 05:33N 31°19' E 121°44'1110.0
2014-Oct-27 04:28N 31°15' E 121°56'131 3.6
2014-Oct-25 16:21N 29°16' E 122°58'40115.3
2014-Oct-24 14:13N 23°58' E 118°26'1116.0
2014-Oct-24 13:32N 23°50' E 118°17'3816.6
2014-Oct-24 11:14N 23°26' E 117°45'2815.1
2014-Oct-24 09:24N 23°09' E 117°21'1514.1
2014-Oct-24 08:21N 23°03' E 117°07'19313.9
2014-Oct-23 18:25N 21°52' E 113°52'1314.3
2014-Oct-23 17:33N 22°05' E 113°50'1212.5
2014-Oct-23 16:33N 22°17' E 113°48'1313.2
2014-Oct-23 15:33N 22°30' E 113°45'1312.7
2014-Oct-23 14:32N 22°42' E 113°41'1111.1
2014-Oct-23 13:33N 22°51' E 113°34'9 9.4
2014-Oct-23 12:33N 23°00' E 113°32'1 0.6
2014-Oct-23 11:23N 23°01' E 113°32'0 0.0
2014-Oct-23 10:23N 23°01' E 113°32'0 0.0
2014-Oct-23 09:29N 23°01' E 113°32'0 0.0
2014-Oct-23 08:29N 23°01' E 113°32'0 0.0
2014-Oct-23 07:29N 23°01' E 113°32'0 0.0
2014-Oct-23 06:29N 23°01' E 113°32'0 0.0
2014-Oct-23 05:29N 23°01' E 113°32'0 0.0
2014-Oct-23 04:12N 23°01' E 113°32'3 5.1
2014-Oct-23 03:33N 22°58' E 113°33'10 9.8
2014-Oct-23 02:33N 22°49' E 113°36'1311.0
2014-Oct-23 01:23N 22°37' E 113°42'1113.3
2014-Oct-23 00:33N 22°26' E 113°45'22 2.3
2014-Oct-22 15:07N 22°06' E 113°52'0 0.0
2014-Oct-22 14:19N 22°06' E 113°52'0 0.0
2014-Oct-22 13:19N 22°06' E 113°52'0 0.0
2014-Oct-22 12:19N 22°06' E 113°52'0 0.0
2014-Oct-22 11:25N 22°06' E 113°52'0 0.0
2014-Oct-22 10:19N 22°06' E 113°52'0 0.1
2014-Oct-22 09:27N 22°06' E 113°52'6 6.5
2014-Oct-22 08:32N 22°08' E 113°58'1312.8
2014-Oct-22 07:32N 22°08' E 114°12'1210.1
2014-Oct-22 06:20N 22°19' E 114°07'0 0.0
2014-Oct-21 22:29N 22°20' E 114°07'  
Track history (hours):
 
Tides and Currents Weather Stations Pressure Air Temp Water Temp Dewpoint Dewpoint Depression Visibility Wind Speed Wind Dir Waves Ship Positions

Cosco Tengfei

Last reported at 2014-Oct-31 02:33 UTC. Time now 2014-Oct-31 10:49 UTC.
Position N 37°56' E 123°10'.

Length 183 m; draft 8.3 m.

Type: Cargo ship. MMSI: 355518000.

Date/timePositionNaut miles runAvg speedWind from/ knotsBaromVisibWave heightAir tempDewpointWater temp
2014-Oct-31 02:33N 37°56' E 123°10'3015.0
2014-Oct-31 00:33N 38°06' E 122°34'22515.0
2014-Oct-30 09:32N 38°57' E 117°54'7 7.4
2014-Oct-30 08:33N 39°01' E 117°47'0 0.4
2014-Oct-30 07:25N 39°01' E 117°46'0 0.0
2014-Oct-30 06:25N 39°01' E 117°46'0 0.0
2014-Oct-30 05:31N 39°01' E 117°46'0 0.0
2014-Oct-30 04:31N 39°01' E 117°46'0 0.0
2014-Oct-30 03:31N 39°01' E 117°46'0 0.0
2014-Oct-30 02:31N 39°01' E 117°46'0 0.0
2014-Oct-30 01:31N 39°01' E 117°46'0 0.0
2014-Oct-30 00:31N 39°01' E 117°46'0 0.3
2014-Oct-29 23:33N 39°01' E 117°46'9 9.1
2014-Oct-29 22:33N 38°57' E 117°57'9 1.1
2014-Oct-29 14:19N 38°56' E 118°08'0 0.1
2014-Oct-29 13:17N 38°56' E 118°08'5 6.8
2014-Oct-29 12:33N 38°53' E 118°13'15416.2
2014-Oct-29 03:04N 38°23' E 121°26'2815.5
2014-Oct-29 01:13N 38°08' E 121°57'1115.9
2014-Oct-29 00:33N 38°03' E 122°09'1616.2
2014-Oct-28 23:33N 37°53' E 122°25'1616.4
2014-Oct-28 22:33N 37°42' E 122°40'2016.0
2014-Oct-28 21:18N 37°25' E 122°53'1415.6
2014-Oct-28 20:25N 37°11' E 122°53'1414.9
2014-Oct-28 19:31N 36°57' E 122°53'1414.6
2014-Oct-28 18:33N 36°43' E 122°53'1615.0
2014-Oct-28 17:29N 36°27' E 122°51'1715.5
2014-Oct-28 16:24N 36°10' E 122°52'1416.1
2014-Oct-28 15:30N 35°56' E 122°53'1716.0
2014-Oct-28 14:25N 35°39' E 122°53'26812.7
2014-Oct-27 17:26N 31°16' E 121°51'9 8.8
2014-Oct-27 16:23N 31°19' E 121°41'0 0.1
2014-Oct-27 15:25N 31°19' E 121°41'0 0.0
2014-Oct-27 13:19N 31°19' E 121°41'0 0.0
2014-Oct-27 10:32N 31°19' E 121°41'0 0.0
2014-Oct-27 09:26N 31°19' E 121°41'0 0.1
2014-Oct-27 08:25N 31°19' E 121°41'1 0.3
2014-Oct-27 06:18N 31°20' E 121°40'3 4.2
2014-Oct-27 05:33N 31°19' E 121°44'1110.0
2014-Oct-27 04:28N 31°15' E 121°56'131 3.6
2014-Oct-25 16:21N 29°16' E 122°58'40115.3
2014-Oct-24 14:13N 23°58' E 118°26'1116.0
2014-Oct-24 13:32N 23°50' E 118°17'3816.6
2014-Oct-24 11:14N 23°26' E 117°45'2815.1
2014-Oct-24 09:24N 23°09' E 117°21'1514.1
2014-Oct-24 08:21N 23°03' E 117°07'19313.9
2014-Oct-23 18:25N 21°52' E 113°52'1314.3
2014-Oct-23 17:33N 22°05' E 113°50'1212.5
2014-Oct-23 16:33N 22°17' E 113°48'1313.2
2014-Oct-23 15:33N 22°30' E 113°45'1312.7
2014-Oct-23 14:32N 22°42' E 113°41'1111.1
2014-Oct-23 13:33N 22°51' E 113°34'9 9.4
2014-Oct-23 12:33N 23°00' E 113°32'1 0.6
2014-Oct-23 11:23N 23°01' E 113°32'0 0.0
2014-Oct-23 10:23N 23°01' E 113°32'0 0.0
2014-Oct-23 09:29N 23°01' E 113°32'0 0.0
2014-Oct-23 08:29N 23°01' E 113°32'0 0.0
2014-Oct-23 07:29N 23°01' E 113°32'0 0.0
2014-Oct-23 06:29N 23°01' E 113°32'0 0.0
2014-Oct-23 05:29N 23°01' E 113°32'0 0.0
2014-Oct-23 04:12N 23°01' E 113°32'3 5.1
2014-Oct-23 03:33N 22°58' E 113°33'10 9.8
2014-Oct-23 02:33N 22°49' E 113°36'1311.0
2014-Oct-23 01:23N 22°37' E 113°42'1113.3
2014-Oct-23 00:33N 22°26' E 113°45'22 2.3
2014-Oct-22 15:07N 22°06' E 113°52'0 0.0
2014-Oct-22 14:19N 22°06' E 113°52'0 0.0
2014-Oct-22 13:19N 22°06' E 113°52'0 0.0
2014-Oct-22 12:19N 22°06' E 113°52'0 0.0
2014-Oct-22 11:25N 22°06' E 113°52'0 0.0
2014-Oct-22 10:19N 22°06' E 113°52'0 0.1
2014-Oct-22 09:27N 22°06' E 113°52'6 6.5
2014-Oct-22 08:32N 22°08' E 113°58'1312.8
2014-Oct-22 07:32N 22°08' E 114°12'1210.1
2014-Oct-22 06:20N 22°19' E 114°07'0 0.0
2014-Oct-21 22:29N 22°20' E 114°07'  

Dump ship's entire track history